This is the latest recevied weather packets stored in our database for station/object EA7OC-10. If no packets are shown the sender has not sent any weather packets the latest 10 day(s).
| Time | Temp. | Humidity | Pressure | Rain* | Wind** | Luminosity | Snow |
|---|---|---|---|---|---|---|---|
| 1777941900 | 15.56° C | 30% | 1015.7 hPa | - | - | - | - |
| 1777940996 | 15.56° C | 30% | 1015.8 hPa | - | - | - | - |
| 1777940096 | 16.11° C | 30% | 1015.8 hPa | - | - | - | - |
| 1777939196 | 16.11° C | 30% | 1015.8 hPa | - | - | - | - |
| 1777938296 | 16.11° C | 30% | 1015.8 hPa | - | - | - | - |
| 1777937394 | 16.11° C | 30% | 1015.8 hPa | - | - | - | - |
| 1777936493 | 16.67° C | 30% | 1015.8 hPa | - | - | - | - |
| 1777935593 | 17.22° C | 30% | 1015.8 hPa | - | - | - | - |
| 1777934693 | 17.78° C | 30% | 1015.6 hPa | - | - | - | - |
| 1777933793 | 17.78° C | 30% | 1015.7 hPa | - | - | - | - |
| 1777932893 | 18.33° C | 30% | 1015.6 hPa | - | - | - | - |
| 1777931993 | 18.33° C | 30% | 1015.8 hPa | - | - | - | - |
| 1777931093 | 18.33° C | 30% | 1015.8 hPa | - | - | - | - |
| 1777930193 | 18.89° C | 30% | 1015.7 hPa | - | - | - | - |
| 1777929293 | 19.44° C | 30% | 1015.8 hPa | - | - | - | - |
| 1777928393 | 20° C | 29% | 1015.6 hPa | - | - | - | - |
| 1777927492 | 20.56° C | 30% | 1015.5 hPa | - | - | - | - |
| 1777926592 | 21.11° C | 29% | 1015.2 hPa | - | - | - | - |
| 1777925692 | 21.67° C | 29% | 1015 hPa | - | - | - | - |
| 1777924792 | 21.67° C | 29% | 1014.7 hPa | - | - | - | - |
| 1777923892 | 21.67° C | 29% | 1014.2 hPa | - | - | - | - |
| 1777922992 | 21.67° C | 29% | 1014.1 hPa | - | - | - | - |
| 1777922092 | 22.22° C | 28% | 1013.8 hPa | - | - | - | - |
| 1777921192 | 23.33° C | 28% | 1013.6 hPa | - | - | - | - |
| 1777920292 | 24.44° C | 28% | 1013.5 hPa | - | - | - | - |
* Rain since midnight (hover to see other rain measurements)
** Current wind speed in m/s (hover to see current wind gust speed)